QRT120 OEJN-VGHS

Flight info

Callsign QRT120
Flight time N/A
Altitude 39000
Route EGREP2W EGREP T532 KODIS Y214 RAPMA DCT KUVSO DCT KATIT DCT MIDGU M440 TULBU N881 RASKI/N0488F410 L639 BPL A791 CEA A462 DAC DCT
Aircraft A359/H-SDE2E3GHIJ3J4J5LM1ORWXY/LB1D1

Departure

Time N/A
Airport King Abdulaziz International Airport (OEJN)

Arrival

Time 2026-04-29 16:17
Airport Hazrat Shahjalal International Airport (VGHS)
Time Latitude Longitude Altitude Speed Heading
2026-04-29 13:29 22.95786 67.99006 38739 ft 541 kts 87°
2026-04-29 13:30 22.95797 68.07165 38736 ft 541 kts 87°
2026-04-29 13:30 22.95800 68.15354 38740 ft 542 kts 87°
2026-04-29 13:31 22.95797 68.23546 38741 ft 542 kts 87°
2026-04-29 13:31 22.95789 68.31699 38743 ft 542 kts 87°
2026-04-29 13:32 22.95770 68.39846 38743 ft 542 kts 88°
2026-04-29 13:32 22.95374 68.48077 38745 ft 544 kts 91°
2026-04-29 13:33 22.94791 68.56238 38745 ft 544 kts 91°
2026-04-29 13:33 22.94253 68.64404 38746 ft 544 kts 91°
2026-04-29 13:34 22.93760 68.72601 38747 ft 544 kts 91°
2026-04-29 13:34 22.93279 68.80805 38744 ft 544 kts 91°
2026-04-29 13:35 22.92794 68.89011 38744 ft 544 kts 91°
2026-04-29 13:35 22.92304 68.97169 38745 ft 544 kts 91°
2026-04-29 13:36 22.91809 69.05320 38743 ft 544 kts 91°
2026-04-29 13:36 22.91308 69.13518 38741 ft 544 kts 91°
2026-04-29 13:37 22.90801 69.21726 38743 ft 544 kts 91°
2026-04-29 13:37 22.90293 69.29887 38740 ft 544 kts 91°
2026-04-29 13:38 22.89778 69.38093 38742 ft 544 kts 91°
2026-04-29 13:38 22.89264 69.46227 38740 ft 544 kts 91°
2026-04-29 13:39 22.88740 69.54442 38742 ft 544 kts 91°
2026-04-29 13:39 22.88213 69.62643 38738 ft 544 kts 91°
2026-04-29 13:40 22.87684 69.70809 38742 ft 545 kts 91°
2026-04-29 13:40 22.87189 69.79031 38738 ft 545 kts 90°
2026-04-29 13:41 22.86729 69.87178 38736 ft 545 kts 90°
2026-04-29 13:41 22.86257 69.95402 38729 ft 545 kts 90°
2026-04-29 13:42 22.85773 70.03620 38733 ft 545 kts 90°
2026-04-29 13:42 22.85286 70.11782 38734 ft 545 kts 90°
2026-04-29 13:43 22.84789 70.20019 38733 ft 545 kts 90°
2026-04-29 13:43 22.84290 70.28240 38735 ft 546 kts 90°
2026-04-29 13:44 22.83789 70.36413 38729 ft 546 kts 90°
2026-04-29 13:44 22.83282 70.44634 38729 ft 546 kts 90°
2026-04-29 13:45 22.82772 70.52822 38731 ft 546 kts 91°
2026-04-29 13:45 22.82255 70.61053 38731 ft 546 kts 91°
2026-04-29 13:46 22.81738 70.69216 38727 ft 546 kts 91°
2026-04-29 13:46 22.81213 70.77445 38726 ft 546 kts 91°
2026-04-29 13:47 22.81260 70.85639 38727 ft 539 kts 78°
2026-04-29 13:47 22.82327 70.93642 38722 ft 538 kts 77°
2026-04-29 13:48 22.83344 71.00313 38720 ft 538 kts 76°
2026-04-29 13:48 22.84776 71.09641 38716 ft 538 kts 76°
2026-04-29 13:49 22.85782 71.16328 38711 ft 539 kts 76°
2026-04-29 13:49 22.86971 71.24324 38712 ft 539 kts 76°
2026-04-29 13:50 22.88351 71.33664 38702 ft 539 kts 76°
2026-04-29 13:50 22.89344 71.40407 38700 ft 539 kts 76°
2026-04-29 13:51 22.90517 71.48394 38696 ft 540 kts 76°
2026-04-29 13:51 22.91695 71.56442 38694 ft 540 kts 76°
2026-04-29 13:52 22.92871 71.64506 38691 ft 540 kts 76°
2026-04-29 13:52 22.94041 71.72558 38688 ft 540 kts 76°
2026-04-29 13:53 22.95203 71.80580 38683 ft 540 kts 76°
2026-04-29 13:53 22.96369 71.88668 38682 ft 540 kts 76°
2026-04-29 13:54 22.97521 71.96684 38680 ft 541 kts 77°
2026-04-29 13:54 22.98680 72.04772 38681 ft 541 kts 77°
2026-04-29 13:55 22.99827 72.12813 38681 ft 541 kts 77°
2026-04-29 13:55 23.00975 72.20889 38679 ft 541 kts 77°
2026-04-29 13:56 23.02117 72.28958 38684 ft 541 kts 77°
2026-04-29 13:56 23.03260 72.37058 38688 ft 542 kts 77°
2026-04-29 13:57 23.04393 72.45119 38691 ft 542 kts 77°
2026-04-29 13:57 23.05529 72.53232 38692 ft 542 kts 77°
2026-04-29 13:58 23.06644 72.61291 38683 ft 543 kts 77°
2026-04-29 13:58 23.07266 72.69520 38694 ft 546 kts 82°
2026-04-29 13:59 23.07734 72.77724 38686 ft 547 kts 82°
2026-04-29 13:59 23.08177 72.85987 38689 ft 547 kts 82°
2026-04-29 14:00 23.08623 72.94237 38682 ft 547 kts 82°
2026-04-29 14:00 23.09070 73.02460 38680 ft 548 kts 82°
2026-04-29 14:01 23.09517 73.10730 38674 ft 548 kts 82°
2026-04-29 14:01 23.09961 73.19000 38671 ft 548 kts 82°
2026-04-29 14:02 23.10397 73.27238 38671 ft 548 kts 82°
2026-04-29 14:02 23.10831 73.35507 38671 ft 548 kts 82°
2026-04-29 14:03 23.11260 73.43779 38674 ft 548 kts 82°
2026-04-29 14:03 23.11685 73.52041 38677 ft 547 kts 82°
2026-04-29 14:04 23.12104 73.60269 38680 ft 547 kts 82°
2026-04-29 14:04 23.12519 73.68534 38681 ft 547 kts 82°
2026-04-29 14:05 23.12931 73.76796 38685 ft 547 kts 82°
2026-04-29 14:05 23.13337 73.85022 38693 ft 546 kts 82°
2026-04-29 14:06 23.13740 73.93280 38699 ft 546 kts 82°
2026-04-29 14:06 23.14136 74.01490 38706 ft 546 kts 82°
2026-04-29 14:07 23.14531 74.09748 38713 ft 546 kts 82°
2026-04-29 14:07 23.14920 74.17982 38716 ft 545 kts 82°
2026-04-29 14:08 23.15303 74.26174 38722 ft 545 kts 82°
2026-04-29 14:08 23.15685 74.34434 38734 ft 545 kts 82°
2026-04-29 14:09 23.15941 74.42636 38740 ft 546 kts 84°
2026-04-29 14:09 23.16064 74.50902 38743 ft 546 kts 84°
2026-04-29 14:10 23.16197 74.59184 38748 ft 546 kts 84°
2026-04-29 14:10 23.16350 74.67406 38756 ft 546 kts 84°
2026-04-29 14:11 23.16511 74.75687 38766 ft 546 kts 84°
2026-04-29 14:11 23.16668 74.83903 38771 ft 547 kts 84°
2026-04-29 14:12 23.16820 74.92180 38772 ft 547 kts 84°
2026-04-29 14:12 23.16965 75.00408 38777 ft 547 kts 84°
2026-04-29 14:13 23.17108 75.08688 38793 ft 547 kts 84°
2026-04-29 14:13 23.17246 75.16970 38795 ft 547 kts 84°
2026-04-29 14:14 23.17380 75.25208 38797 ft 547 kts 84°
2026-04-29 14:14 23.17510 75.33494 38797 ft 547 kts 84°
2026-04-29 14:15 23.17634 75.41729 38806 ft 547 kts 84°
2026-04-29 14:15 23.17755 75.50011 38800 ft 547 kts 84°
2026-04-29 14:16 23.17871 75.58303 38796 ft 547 kts 84°
2026-04-29 14:16 23.17983 75.66542 38799 ft 547 kts 84°
2026-04-29 14:17 23.18090 75.74808 38793 ft 547 kts 84°
2026-04-29 14:17 23.18193 75.83040 38797 ft 547 kts 84°
2026-04-29 14:18 23.18293 75.91317 38793 ft 547 kts 84°
2026-04-29 14:18 23.18388 75.99546 38790 ft 547 kts 84°
2026-04-29 14:19 23.18775 76.07793 38792 ft 543 kts 79°
2026-04-29 14:19 23.19531 76.15977 38781 ft 543 kts 79°
2026-04-29 14:20 23.20257 76.24108 38777 ft 543 kts 79°
2026-04-29 14:20 23.20911 76.32266 38780 ft 544 kts 80°
2026-04-29 14:21 23.21535 76.40478 38773 ft 544 kts 80°
2026-04-29 14:21 23.22151 76.48691 38777 ft 544 kts 80°
2026-04-29 14:22 23.22760 76.56830 38770 ft 544 kts 80°
2026-04-29 14:22 23.23373 76.65043 38770 ft 544 kts 80°
2026-04-29 14:23 23.23982 76.73257 38765 ft 544 kts 80°
2026-04-29 14:23 23.24584 76.81430 38768 ft 544 kts 80°
2026-04-29 14:24 23.25183 76.89629 38764 ft 544 kts 80°
2026-04-29 14:24 23.25780 76.97857 38762 ft 544 kts 80°
2026-04-29 14:25 23.26368 77.06022 38758 ft 544 kts 80°
2026-04-29 14:25 23.26956 77.14245 38752 ft 544 kts 80°
2026-04-29 14:26 23.27536 77.22425 38749 ft 544 kts 80°
2026-04-29 14:26 23.28115 77.30643 38748 ft 544 kts 80°
2026-04-29 14:27 23.28126 77.38911 38747 ft 548 kts 87°
2026-04-29 14:28 23.27630 77.51369 38748 ft 549 kts 88°
2026-04-29 14:28 23.27267 77.59622 38746 ft 549 kts 88°
2026-04-29 14:29 23.26909 77.67913 38747 ft 549 kts 88°
2026-04-29 14:29 23.26555 77.76223 38748 ft 549 kts 88°
2026-04-29 14:30 23.26199 77.84463 38744 ft 548 kts 88°
2026-04-29 14:30 23.25836 77.92788 38741 ft 549 kts 88°
2026-04-29 14:31 23.25471 78.01038 38743 ft 548 kts 88°
2026-04-29 14:31 23.25099 78.09336 38750 ft 548 kts 88°
2026-04-29 14:32 23.24722 78.17635 38743 ft 548 kts 88°
2026-04-29 14:32 23.24344 78.25860 38745 ft 548 kts 88°
2026-04-29 14:33 23.23959 78.34165 38745 ft 548 kts 88°
2026-04-29 14:33 23.23572 78.42449 38742 ft 548 kts 88°
2026-04-29 14:34 23.23181 78.50696 38734 ft 548 kts 88°
2026-04-29 14:34 23.22784 78.58975 38744 ft 548 kts 88°
2026-04-29 14:35 23.22383 78.67253 38735 ft 548 kts 88°
2026-04-29 14:35 23.21982 78.75491 38733 ft 547 kts 88°
2026-04-29 14:36 23.21818 78.82374 38744 ft 545 kts 85°
2026-04-29 14:36 23.21762 78.90622 38728 ft 545 kts 85°
2026-04-29 14:37 23.21686 78.98847 38732 ft 546 kts 85°
2026-04-29 14:37 23.21568 79.07137 38733 ft 546 kts 85°
2026-04-29 14:38 23.21434 79.15373 38731 ft 547 kts 85°
2026-04-29 14:38 23.21293 79.23648 38727 ft 546 kts 85°
2026-04-29 14:39 23.21149 79.31910 38729 ft 546 kts 85°
2026-04-29 14:39 23.21003 79.40133 38729 ft 545 kts 85°
2026-04-29 14:40 23.20854 79.48387 38726 ft 545 kts 85°
2026-04-29 14:40 23.20699 79.56584 38725 ft 544 kts 85°
2026-04-29 14:41 23.20437 79.64820 38724 ft 545 kts 87°
2026-04-29 14:41 23.20052 79.73061 38723 ft 545 kts 88°
2026-04-29 14:42 23.19672 79.81236 38723 ft 544 kts 88°
2026-04-29 14:42 23.19309 79.89473 38723 ft 543 kts 87°
2026-04-29 14:43 23.18953 79.97649 38719 ft 543 kts 87°
2026-04-29 14:43 23.18593 80.05848 38720 ft 543 kts 88°
2026-04-29 14:44 23.18203 80.14044 38721 ft 543 kts 88°
2026-04-29 14:44 23.17769 80.22212 38723 ft 543 kts 88°
2026-04-29 14:45 23.17331 80.30414 38718 ft 542 kts 88°
2026-04-29 14:45 23.16898 80.38597 38719 ft 542 kts 88°
2026-04-29 14:46 23.16466 80.46733 38721 ft 542 kts 88°
2026-04-29 14:46 23.16029 80.54903 38724 ft 541 kts 88°
2026-04-29 14:47 23.15586 80.63084 38722 ft 541 kts 89°
2026-04-29 14:47 23.15142 80.71207 38721 ft 541 kts 89°
2026-04-29 14:48 23.14695 80.79369 38722 ft 541 kts 89°
2026-04-29 14:48 23.14255 80.87530 38719 ft 540 kts 89°
2026-04-29 14:49 23.13809 80.95684 38718 ft 539 kts 89°
2026-04-29 14:49 23.13364 81.03775 38717 ft 538 kts 89°
2026-04-29 14:50 23.12912 81.11913 38711 ft 537 kts 89°
2026-04-29 14:50 23.12459 81.19966 38708 ft 536 kts 89°
2026-04-29 14:51 23.12001 81.28059 38705 ft 536 kts 89°
2026-04-29 14:51 23.11538 81.36171 38702 ft 536 kts 89°
2026-04-29 14:52 23.11074 81.44219 38698 ft 536 kts 89°
2026-04-29 14:52 23.10606 81.52267 38693 ft 535 kts 90°
2026-04-29 14:53 23.10131 81.60368 38687 ft 535 kts 90°
2026-04-29 14:53 23.09653 81.68451 38684 ft 535 kts 90°
2026-04-29 14:54 23.09174 81.76466 38678 ft 534 kts 90°
2026-04-29 14:54 23.08689 81.84519 38673 ft 533 kts 90°
2026-04-29 14:55 23.08203 81.92520 38671 ft 532 kts 90°
2026-04-29 14:55 23.07712 82.00552 38668 ft 531 kts 90°
2026-04-29 14:56 23.07220 82.08521 38665 ft 530 kts 90°
2026-04-29 14:56 23.06722 82.16514 38664 ft 529 kts 91°
2026-04-29 14:57 23.06317 82.24398 38659 ft 519 kts 89°
2026-04-29 14:57 23.06014 82.32172 38670 ft 511 kts 89°
2026-04-29 14:58 23.05705 82.39870 38676 ft 508 kts 90°
2026-04-29 14:58 23.05377 82.47487 38689 ft 507 kts 90°
2026-04-29 14:59 23.05034 82.55160 38692 ft 504 kts 90°
2026-04-29 14:59 23.04862 82.58917 38695 ft 493 kts 90°
2026-04-29 14:59 23.04694 82.62556 38697 ft 486 kts 90°
2026-04-29 15:00 23.04359 82.69868 38706 ft 482 kts 91°
2026-04-29 15:00 23.04027 82.77097 38711 ft 482 kts 91°
2026-04-29 15:01 23.03689 82.84364 38720 ft 482 kts 91°
2026-04-29 15:01 23.03346 82.91626 38725 ft 473 kts 91°
2026-04-29 15:01 23.03177 82.95140 38724 ft 459 kts 91°
2026-04-29 15:02 23.03011 82.98568 38724 ft 445 kts 91°
2026-04-29 15:02 23.02852 83.01839 38729 ft 433 kts 91°
2026-04-29 15:02 23.02696 83.05088 38736 ft 428 kts 91°
2026-04-29 15:03 23.02389 83.11499 38752 ft 427 kts 91°
2026-04-29 15:03 23.02078 83.17936 38763 ft 426 kts 91°
2026-04-29 15:04 23.01764 83.24341 38761 ft 426 kts 91°
2026-04-29 15:04 23.01445 83.30767 38771 ft 425 kts 91°
2026-04-29 15:05 23.01123 83.37196 38776 ft 424 kts 91°
2026-04-29 15:05 23.00802 83.43552 38783 ft 423 kts 91°
2026-04-29 15:06 23.00478 83.49934 38792 ft 422 kts 91°
2026-04-29 15:06 23.00154 83.56269 38793 ft 421 kts 91°
2026-04-29 15:07 22.99827 83.62620 38800 ft 420 kts 91°
2026-04-29 15:07 22.99500 83.68906 38806 ft 419 kts 91°
2026-04-29 15:08 22.99168 83.75223 38807 ft 419 kts 91°
2026-04-29 15:08 22.98834 83.81549 38811 ft 418 kts 91°
2026-04-29 15:09 22.98501 83.87810 38812 ft 417 kts 91°
2026-04-29 15:09 22.98164 83.94090 38814 ft 416 kts 91°
2026-04-29 15:10 22.97827 84.00330 38818 ft 415 kts 91°
2026-04-29 15:10 22.97487 84.06594 38820 ft 416 kts 91°
2026-04-29 15:11 22.97140 84.12978 38824 ft 429 kts 91°
2026-04-29 15:11 22.96724 84.19507 38828 ft 443 kts 92°
2026-04-29 15:12 22.96210 84.26267 38822 ft 456 kts 92°
2026-04-29 15:12 22.95682 84.33251 38827 ft 469 kts 92°
2026-04-29 15:13 22.95155 84.40385 38832 ft 482 kts 92°
2026-04-29 15:13 22.94620 84.47669 38824 ft 487 kts 92°
2026-04-29 15:14 22.94077 84.54993 38826 ft 486 kts 92°
2026-04-29 15:14 22.93533 84.62311 38827 ft 486 kts 93°
2026-04-29 15:15 22.92989 84.69584 38829 ft 486 kts 93°
2026-04-29 15:15 22.92439 84.76891 38829 ft 485 kts 93°
2026-04-29 15:16 22.91889 84.84154 38828 ft 485 kts 93°
2026-04-29 15:16 22.91330 84.91477 38834 ft 485 kts 94°
2026-04-29 15:17 22.90772 84.98753 38837 ft 485 kts 94°
2026-04-29 15:17 22.90208 85.06069 38837 ft 486 kts 94°
2026-04-29 15:18 22.89647 85.13284 38835 ft 472 kts 94°
2026-04-29 15:18 22.89371 85.16789 38831 ft 457 kts 94°
2026-04-29 15:18 22.89106 85.20184 38834 ft 443 kts 94°
2026-04-29 15:18 22.88853 85.23462 38830 ft 429 kts 94°
2026-04-29 15:19 22.88609 85.26642 38832 ft 416 kts 94°
2026-04-29 15:19 22.88132 85.32835 38837 ft 410 kts 94°
2026-04-29 15:20 22.87654 85.38989 38837 ft 412 kts 94°
2026-04-29 15:20 22.87166 85.45219 38836 ft 414 kts 94°
2026-04-29 15:21 22.86678 85.51403 38838 ft 415 kts 94°
2026-04-29 15:21 22.86182 85.57651 38838 ft 416 kts 94°
2026-04-29 15:22 22.85683 85.63909 38835 ft 416 kts 94°
2026-04-29 15:22 22.85184 85.70140 38832 ft 417 kts 94°
2026-04-29 15:23 22.84677 85.76435 38834 ft 418 kts 94°
2026-04-29 15:23 22.84169 85.82718 38830 ft 418 kts 94°
2026-04-29 15:24 22.83660 85.88974 38832 ft 419 kts 94°
2026-04-29 15:24 22.83147 85.95254 38829 ft 416 kts 94°
2026-04-29 15:25 22.82637 86.01462 38832 ft 415 kts 94°
2026-04-29 15:25 22.82209 86.06668 38834 ft 416 kts 94°
2026-04-29 15:26 22.81689 86.12950 38831 ft 418 kts 94°
2026-04-29 15:26 22.81176 86.19207 38837 ft 419 kts 92°
2026-04-29 15:27 22.80819 86.25533 38837 ft 419 kts 91°
2026-04-29 15:27 22.80525 86.31822 38837 ft 420 kts 91°
2026-04-29 15:28 22.80205 86.38159 38835 ft 421 kts 92°
2026-04-29 15:28 22.79864 86.44511 38832 ft 422 kts 92°
2026-04-29 15:29 22.79516 86.50838 38831 ft 423 kts 92°
2026-04-29 15:30 22.78807 86.63583 38833 ft 424 kts 92°
2026-04-29 15:30 22.78449 86.69978 38830 ft 425 kts 93°
2026-04-29 15:31 22.78137 86.75512 38826 ft 425 kts 93°
2026-04-29 15:31 22.78013 86.77705 38824 ft 425 kts 93°
2026-04-29 15:32 22.77648 86.84107 38821 ft 425 kts 93°
2026-04-29 15:32 22.77281 86.90503 38822 ft 426 kts 94°
2026-04-29 15:33 22.76911 86.96904 38815 ft 426 kts 94°
2026-04-29 15:33 22.76538 87.03328 38814 ft 427 kts 94°
2026-04-29 15:34 22.76164 87.09713 38813 ft 427 kts 94°
2026-04-29 15:34 22.75784 87.16161 38812 ft 427 kts 94°
2026-04-29 15:35 22.75402 87.22598 38812 ft 428 kts 95°
2026-04-29 15:35 22.75037 87.28702 38807 ft 428 kts 95°
2026-04-29 15:36 22.74649 87.35154 38815 ft 430 kts 95°
2026-04-29 15:36 22.74252 87.41684 38815 ft 442 kts 95°
2026-04-29 15:37 22.73837 87.48460 38816 ft 456 kts 95°
2026-04-29 15:37 22.73411 87.55386 38818 ft 469 kts 95°
2026-04-29 15:38 22.72967 87.62560 38811 ft 483 kts 95°
2026-04-29 15:38 22.72510 87.69896 38816 ft 497 kts 95°
2026-04-29 15:39 22.72035 87.77460 38817 ft 509 kts 95°
2026-04-29 15:39 22.71548 87.85177 38817 ft 513 kts 95°
2026-04-29 15:40 22.71061 87.92862 38815 ft 513 kts 95°
2026-04-29 15:40 22.70565 88.00581 38819 ft 514 kts 95°
2026-04-29 15:41 22.70067 88.08277 38823 ft 515 kts 95°
2026-04-29 15:41 22.69561 88.16032 38841 ft 516 kts 95°
2026-04-29 15:42 22.69050 88.23814 38859 ft 517 kts 95°
2026-04-29 15:42 22.68538 88.31546 38878 ft 518 kts 95°
2026-04-29 15:43 22.68123 88.39351 38883 ft 520 kts 90°
2026-04-29 15:43 22.69384 88.47062 38884 ft 521 kts 69°
2026-04-29 15:44 22.72679 88.53991 38878 ft 521 kts 58°
2026-04-29 15:44 22.74553 88.57364 38694 ft 517 kts 57°
2026-04-29 15:44 22.76442 88.60693 38008 ft 517 kts 57°
2026-04-29 15:44 22.78318 88.63987 37229 ft 519 kts 58°
2026-04-29 15:45 22.80212 88.67331 36466 ft 520 kts 58°
2026-04-29 15:45 22.82107 88.70699 35704 ft 522 kts 59°
2026-04-29 15:45 22.83973 88.74037 34937 ft 524 kts 59°
2026-04-29 15:45 22.85860 88.77426 34519 ft 527 kts 59°
2026-04-29 15:46 22.87767 88.80863 34293 ft 533 kts 60°
2026-04-29 15:46 22.89683 88.84323 34052 ft 535 kts 60°
2026-04-29 15:46 22.91595 88.87775 33304 ft 534 kts 60°
2026-04-29 15:46 22.93517 88.91246 32396 ft 536 kts 59°
2026-04-29 15:47 22.95523 88.94629 31500 ft 538 kts 56°
2026-04-29 15:47 22.97614 88.98024 30587 ft 539 kts 56°
2026-04-29 15:47 22.99695 89.01418 29681 ft 540 kts 56°
2026-04-29 15:47 23.01748 89.04788 28688 ft 539 kts 56°
2026-04-29 15:48 23.03809 89.08187 27864 ft 536 kts 56°
2026-04-29 15:48 23.05826 89.11523 27140 ft 510 kts 56°
2026-04-29 15:48 23.07740 89.14695 26493 ft 497 kts 56°
2026-04-29 15:48 23.09610 89.17795 25844 ft 494 kts 56°
2026-04-29 15:49 23.11486 89.20906 25192 ft 492 kts 55°
2026-04-29 15:49 23.13358 89.24016 24545 ft 489 kts 55°
2026-04-29 15:49 23.15231 89.27127 24073 ft 491 kts 55°
2026-04-29 15:49 23.17111 89.30252 23862 ft 493 kts 55°
2026-04-29 15:50 23.18967 89.33340 23811 ft 492 kts 55°
2026-04-29 15:50 23.20835 89.36451 23812 ft 490 kts 55°
2026-04-29 15:50 23.22702 89.39562 23817 ft 489 kts 56°
2026-04-29 15:50 23.24557 89.42656 23822 ft 488 kts 55°
2026-04-29 15:51 23.26383 89.45721 23823 ft 488 kts 56°
2026-04-29 15:51 23.28225 89.48827 23825 ft 487 kts 56°
2026-04-29 15:51 23.30058 89.51927 23831 ft 487 kts 56°
2026-04-29 15:51 23.31887 89.55024 23831 ft 486 kts 56°
2026-04-29 15:52 23.33717 89.58123 23829 ft 485 kts 56°
2026-04-29 15:52 23.35542 89.61216 23831 ft 485 kts 56°
2026-04-29 15:52 23.37346 89.64275 23835 ft 485 kts 56°
2026-04-29 15:52 23.39168 89.67364 23836 ft 484 kts 56°
2026-04-29 15:53 23.40993 89.70460 23835 ft 484 kts 57°
2026-04-29 15:53 23.42818 89.73560 23833 ft 484 kts 57°
2026-04-29 15:53 23.44637 89.76649 23838 ft 484 kts 57°
2026-04-29 15:53 23.46434 89.79704 23835 ft 484 kts 57°
2026-04-29 15:54 23.48250 89.82792 23836 ft 483 kts 57°
2026-04-29 15:54 23.50071 89.85890 23839 ft 483 kts 57°
2026-04-29 15:54 23.51438 89.88218 23836 ft 483 kts 57°
2026-04-29 15:54 23.53252 89.91309 23822 ft 482 kts 57°
2026-04-29 15:55 23.55053 89.94378 23616 ft 479 kts 57°
2026-04-29 15:55 23.56843 89.97432 23405 ft 478 kts 57°
2026-04-29 15:55 23.58606 90.00444 23143 ft 476 kts 57°
2026-04-29 15:55 23.60389 90.03491 22890 ft 474 kts 56°
2026-04-29 15:56 23.62143 90.06492 22622 ft 472 kts 56°
2026-04-29 15:56 23.63909 90.09514 22361 ft 470 kts 56°
2026-04-29 15:56 23.65660 90.12513 21722 ft 468 kts 56°
2026-04-29 15:56 23.67415 90.15519 20957 ft 466 kts 56°
2026-04-29 15:57 23.69135 90.18469 20402 ft 458 kts 55°
2026-04-29 15:57 23.70838 90.21392 19763 ft 453 kts 55°
2026-04-29 15:57 23.72522 90.24281 19123 ft 449 kts 54°
2026-04-29 15:57 23.74189 90.27142 18493 ft 444 kts 54°
2026-04-29 15:58 23.75840 90.29975 17828 ft 440 kts 54°
2026-04-29 15:58 23.77452 90.32738 17069 ft 437 kts 54°
2026-04-29 15:58 23.79078 90.35521 16324 ft 434 kts 55°
2026-04-29 15:58 23.80698 90.38297 15609 ft 431 kts 55°
2026-04-29 15:59 23.82304 90.41051 15093 ft 427 kts 55°
2026-04-29 15:59 23.83878 90.43756 14832 ft 416 kts 56°
2026-04-29 15:59 23.85404 90.46373 14611 ft 401 kts 55°
2026-04-29 15:59 23.86880 90.48899 14378 ft 388 kts 56°
2026-04-29 16:00 23.88316 90.51348 14143 ft 376 kts 56°
2026-04-29 16:00 23.88953 90.52432 14041 ft 371 kts 55°
2026-04-29 16:00 23.90328 90.54765 13804 ft 354 kts 56°
2026-04-29 16:00 23.91616 90.56946 13556 ft 330 kts 55°
2026-04-29 16:01 23.92843 90.59020 13295 ft 324 kts 55°
2026-04-29 16:01 23.94060 90.61071 13057 ft 319 kts 55°
2026-04-29 16:01 23.95248 90.63066 12790 ft 304 kts 55°
2026-04-29 16:01 23.96368 90.64945 12521 ft 286 kts 55°
2026-04-29 16:02 23.97449 90.66755 12277 ft 282 kts 55°
2026-04-29 16:02 23.98643 90.68413 12031 ft 275 kts 38°
2026-04-29 16:02 24.00283 90.69379 11774 ft 264 kts 10°
2026-04-29 16:02 24.02055 90.69446 11447 ft 257 kts 346°
2026-04-29 16:03 24.03793 90.68989 11085 ft 257 kts 340°
2026-04-29 16:03 24.05503 90.68430 10742 ft 258 kts 340°
2026-04-29 16:03 24.07219 90.67849 10394 ft 257 kts 340°
2026-04-29 16:03 24.08912 90.67271 10049 ft 255 kts 339°
2026-04-29 16:04 24.10606 90.66688 9712 ft 256 kts 340°
2026-04-29 16:04 24.12217 90.66130 9430 ft 254 kts 340°
2026-04-29 16:04 24.13873 90.65560 9172 ft 250 kts 339°
2026-04-29 16:04 24.15529 90.64995 8913 ft 249 kts 339°
2026-04-29 16:05 24.17165 90.64397 8667 ft 247 kts 333°
2026-04-29 16:05 24.18487 90.63277 8419 ft 238 kts 303°
2026-04-29 16:05 24.19054 90.62261 8257 ft 235 kts 293°
2026-04-29 16:05 24.19553 90.61084 8091 ft 234 kts 290°
2026-04-29 16:06 24.20195 90.59443 7841 ft 234 kts 290°
2026-04-29 16:06 24.20832 90.57796 7493 ft 236 kts 289°
2026-04-29 16:06 24.21326 90.56096 7137 ft 233 kts 272°
2026-04-29 16:06 24.21067 90.54384 6799 ft 228 kts 244°
2026-04-29 16:07 24.20283 90.52874 6451 ft 229 kts 236°
2026-04-29 16:07 24.19697 90.51910 6217 ft 229 kts 234°
2026-04-29 16:07 24.18547 90.50046 5719 ft 219 kts 234°
2026-04-29 16:07 24.17703 90.48667 5357 ft 216 kts 234°
2026-04-29 16:08 24.16873 90.47297 4996 ft 217 kts 234°
2026-04-29 16:08 24.16054 90.45937 4723 ft 215 kts 234°
2026-04-29 16:08 24.15236 90.44579 4470 ft 213 kts 234°
2026-04-29 16:08 24.14429 90.43225 4220 ft 212 kts 234°
2026-04-29 16:09 24.13883 90.42297 4081 ft 211 kts 234°
2026-04-29 16:09 24.13174 90.41090 4016 ft 209 kts 233°
2026-04-29 16:09 24.12211 90.39901 4010 ft 208 kts 221°
2026-04-29 16:09 24.11133 90.38840 4013 ft 209 kts 220°
2026-04-29 16:10 24.10036 90.37795 3999 ft 208 kts 219°
2026-04-29 16:10 24.08936 90.36751 3814 ft 209 kts 219°
2026-04-29 16:10 24.07851 90.35718 3501 ft 202 kts 219°
2026-04-29 16:10 24.06810 90.34715 3197 ft 204 kts 219°
2026-04-29 16:11 24.05740 90.33674 2863 ft 202 kts 219°
2026-04-29 16:11 24.04716 90.32682 2547 ft 191 kts 219°
2026-04-29 16:11 24.03631 90.31930 2225 ft 181 kts 203°
2026-04-29 16:11 24.02468 90.31410 2040 ft 181 kts 200°
2026-04-29 16:12 24.01313 90.30918 2023 ft 171 kts 200°
2026-04-29 16:12 24.00599 90.30614 2010 ft 163 kts 200°
2026-04-29 16:12 23.99186 90.30062 2007 ft 161 kts 193°
2026-04-29 16:12 23.98065 90.30040 2014 ft 161 kts 173°
2026-04-29 16:13 23.96976 90.30242 2022 ft 162 kts 168°
2026-04-29 16:13 23.95920 90.30655 2025 ft 160 kts 153°
2026-04-29 16:13 23.95316 90.31088 2012 ft 152 kts 146°
2026-04-29 16:13 23.94499 90.31755 2003 ft 145 kts 146°
2026-04-29 16:14 23.93674 90.32404 1949 ft 147 kts 147°
2026-04-29 16:14 23.92854 90.33032 1765 ft 140 kts 147°
2026-04-29 16:14 23.91830 90.33815 1540 ft 131 kts 148°
2026-04-29 16:14 23.91339 90.34195 1430 ft 131 kts 146°
2026-04-29 16:15 23.90368 90.34977 1208 ft 130 kts 144°
2026-04-29 16:15 23.89637 90.35559 1037 ft 130 kts 144°
2026-04-29 16:15 23.88911 90.36137 875 ft 128 kts 143°
2026-04-29 16:15 23.88433 90.36518 764 ft 129 kts 143°
2026-04-29 16:16 23.87698 90.37104 602 ft 131 kts 141°
2026-04-29 16:16 23.86957 90.37698 406 ft 133 kts 142°
2026-04-29 16:16 23.86210 90.38294 243 ft 136 kts 143°
2026-04-29 16:16 23.85439 90.38905 98 ft 137 kts 141°
2026-04-29 16:17 23.84705 90.39499 43 ft 121 kts 143°
2026-04-29 16:17 23.84212 90.39878 42 ft 94 kts 143°
2026-04-29 16:17 23.83811 90.40214 45 ft 52 kts 126°
2026-04-29 16:17 23.83736 90.40371 43 ft 17 kts 115°
2026-04-29 16:18 23.83702 90.40496 42 ft 7 kts 97°
2026-04-29 16:18 23.83702 90.40498 42 ft 0 kts 97°
2026-04-29 16:18 23.83701 90.40530 42 ft 11 kts 87°
2026-04-29 16:18 23.83717 90.40622 42 ft 13 kts 72°
2026-04-29 16:19 23.83769 90.40714 42 ft 15 kts 53°
2026-04-29 16:19 23.83843 90.40799 42 ft 15 kts 19°
2026-04-29 16:19 23.83941 90.40759 42 ft 17 kts 325°
2026-04-29 16:19 23.84041 90.40682 42 ft 18 kts 320°
2026-04-29 16:20 23.84146 90.40594 42 ft 19 kts 325°
2026-04-29 16:20 23.84260 90.40507 42 ft 21 kts 324°
2026-04-29 16:20 23.84385 90.40407 42 ft 23 kts 323°
2026-04-29 16:20 23.84513 90.40304 42 ft 22 kts 323°
2026-04-29 16:21 23.84604 90.40235 41 ft 6 kts 340°
2026-04-29 16:21 23.84647 90.40242 42 ft 5 kts 41°
2026-04-29 16:21 23.84668 90.40277 42 ft 8 kts 55°
2026-04-29 16:21 23.84683 90.40305 42 ft 3 kts 69°
2026-04-29 16:22 23.84688 90.40334 42 ft 6 kts 79°
2026-04-29 16:22 23.84694 90.40360 42 ft 8 kts 71°
2026-04-29 16:22 23.84710 90.40389 42 ft 0 kts 56°
2026-04-29 16:23 23.84724 90.40411 40 ft 7 kts 54°
2026-04-29 16:23 23.84728 90.40417 41 ft 3 kts 53°
2026-04-29 16:23 23.84730 90.40421 42 ft 0 kts 53°
2026-04-29 16:23 23.84732 90.40423 42 ft 0 kts 56°